User: anonymous   Login
Location: Unspecified
(0.0000°N, 0.0000°E)
Time: 01:12:57
(UTC+01:00)
Language:

Ariane 42L R/B - Orbit

View from above orbital plane
View from above orbital plane
View from above satellite
View from above satellite

Ground track
Ground track

The orbit data is extracted from the following two-line orbital elements,

1 26299U 00020B   17053.81593539  .00001695  00000-0  59644-3 0  9991
2 26299   7.4883  42.4538 5929071  37.1406 351.9867  4.11182809214381
Epoch (UTC): 22 February 2017 19:34:56
Eccentricity: 0.5929071
inclination: 7.4883°
perigee height: 322 km
apogee height: 19838 km
right ascension of ascending node: 42.4538°
argument of perigee: 37.1406°
revolutions per day: 4.11182809
mean anomaly at epoch: 351.9867°
orbit number at epoch: 21438

The dashed part of the orbit path shows where the satellite is in the earth's shadow,  

DLR